Hourly Data Report for December 31, 2020

L'ASSOMPTION
QUEBEC
Current Station Operator: ECCC - MSC

45°48'34.000" N
73°26'05.000" W
21.00 m
7014160
71524
WEW

Download Data

Hourly Data (December 2020)
Hourly Data Report for December 31, 2020
TIME
LST
Temp Definition
°C
Dew Point Definition
°C
Rel Hum Definition
%
Precip. Amount Definition
mm

Wind Dir Definition
10's deg

Wind Spd Definition
km/h
Visibility Definition
km
Stn Press Definition
kPa
Hmdx Definition


Wind Chill Definition


Weather Definition


00:00 0.7 0.1 96 0.8 18 14   100.17     LegendNANA
01:00 1.1 0.2 94 0.7 19 15   100.12     LegendNANA
02:00 0.9 0.3 96 1.3 22 10   100.23     LegendNANA
03:00 1.4 0.6 94 1.4 21 17   100.25     LegendNANA
04:00 2.1 0.3 88 0.0 25 17   100.37     LegendNANA
05:00 1.9 -1.8 77 0.0 25 18   100.49     LegendNANA
06:00 1.5 -3.3 70 0.0 25 24   100.69     LegendNANA
07:00 0.6 -4.4 69 0.0 26 18   100.84     LegendNANA
08:00 -0.5 -4.9 72 0.0 24 13   100.98   -5 LegendNANA
09:00 0.0 -5.1 68 0.0 25 17   101.15   -5 LegendNANA
10:00 0.6 -4.4 69 0.0 25 17   101.31     LegendNANA
11:00 0.7 -4.3 69 0.0 25 20   101.45     LegendNANA
12:00 0.9 -7.8 52 0.0 27 17   101.52     LegendNANA
13:00 0.2 -7.9 54 0.0 30 18   101.61     LegendNANA
14:00 0.1 -8.3 53 0.0 29 19   101.75     LegendNANA
15:00 -0.9 -8.4 57 0.0 30 15   101.93   -6 LegendNANA
16:00 -1.3 -7.8 61 0.0 29 13   102.03   -6 LegendNANA
17:00 -2.1 -9.2 58 0.0 29 14   102.17   -7 LegendNANA
18:00 -2.2 -8.9 60 0.0 30 12   102.29   -6 LegendNANA
19:00 -2.7 -8.8 63 0.0 28 11   102.39   -7 LegendNANA
20:00 -3.6 -9.7 63 0.0 28 10   102.50   -8 LegendNANA
21:00 -4.5 -10.0 65 0.0 29 8   102.60   -8 LegendNANA
22:00 -5.0 -10.1 67 0.0 28 8   102.67   -9 LegendNANA
23:00 -7.2 -10.1 80 0.0 29 8   102.78   -11 LegendNANA

Notes on Data Quality.

Legend

  • E = Estimated
  • M = Missing
  • NA = Not Available*
  • [empty] = Indicates an unobserved value
Date modified: